Weather History for Dodge City, KS

Change the Weather History Date:

Monday, July 15, 2013

  Actual Average Record
Temperature  
Mean Temperature 68 °F -  
Max Temperature 82 °F 92 °F 108 °F (1980)
Min Temperature 55 °F 67 °F 55 °F (2013)
Cooling Degree Days 4    
Growing Degree Days 18 (Base 50)    
Moisture  
Dew Point 58 °F    
Average Humidity 76    
Maximum Humidity 100    
Minimum Humidity 23    
Precipitation  
Precipitation 0.03 in - - ()
Sea Level Pressure  
Sea Level Pressure 30.12 in    
Wind  
Wind Speed 6 mph (ENE)    
Max Wind Speed 31 mph    
Max Gust Speed 29 mph    
Visibility 6 miles    
Events Fog    
Averages and records for this station are not official NWS values.
T = Trace of Precipitation, MM = Missing Value Source: NWS Daily Summary

Daily Weather History Graph

Daily Weather History Graph

Search for Another Location

Airport:

Trip Planner

Search our weather history database for the weather conditions in past years. The results will help you decide how hot, cold, wet, or windy it might be!

Date:

Astronomy

Jul. 15, 2013 Rise Set
Actual Time 6:30 AM CDT 9:01 PM CDT
Civil Twilight 5:59 AM CDT 9:31 PM CDT
Nautical Twilight 5:22 AM CDT 10:09 PM CDT
Astronomical Twilight 4:40 AM CDT 10:50 PM CDT
Moon 1:42 PM CDT (7/15) 12:23 AM CDT (7/15)
Length of Visible Light 15h 31m
Length of Day
14h 30m
Waxing Crescent, 45% of the Moon is Illuminated
Jul 15
Waxing Crescent
Jul 15
First Quarter
Jul 22
Full
Jul 29
Last Quarter
Aug 6
New

Hourly Weather History & Observations

Time (CDT) Temp. Heat Index Dew Point Humidity Pressure Visibility Wind Dir Wind Speed Gust Speed Precip Events Conditions
12:52 AM 61.0 °F - 57.0 °F 87% 30.09 in 7.0 mi Calm Calm - N/A   Clear
1:52 AM 60.1 °F - 57.9 °F 93% 30.08 in 4.0 mi West 3.5 mph - N/A   Clear
2:23 AM 59.0 °F - 57.2 °F 94% 30.15 in 1.0 mi Calm Calm - N/A   Clear
2:26 AM 59.0 °F - 57.2 °F 94% 30.15 in 0.2 mi Calm Calm - N/A Fog Fog
2:34 AM 59.0 °F - 57.2 °F 94% 30.15 in 0.2 mi Calm Calm - N/A Fog Fog
2:48 AM 57.2 °F - 55.4 °F 94% 30.15 in 0.2 mi NW 4.6 mph - N/A Fog Fog
2:52 AM 57.9 °F - 55.9 °F 93% 30.09 in 0.2 mi Calm Calm - N/A Fog Fog
3:52 AM 57.0 °F - 55.9 °F 96% 30.11 in 0.2 mi NNW 3.5 mph - N/A Fog Fog
4:52 AM 57.9 °F - 57.0 °F 97% 30.11 in 0.2 mi NW 3.5 mph - N/A Fog Fog
5:20 AM 60.8 °F - 59.0 °F 94% 30.16 in 1.0 mi North 4.6 mph - N/A   Mist
5:26 AM 60.8 °F - 59.0 °F 94% 30.16 in 2.0 mi North 4.6 mph - N/A   Overcast
5:44 AM 60.8 °F - 59.0 °F 94% 30.16 in 3.0 mi NNW 3.5 mph - N/A   Overcast
5:52 AM 61.0 °F - 60.1 °F 97% 30.11 in 4.0 mi Calm Calm - N/A   Overcast
6:52 AM 62.1 °F - 61.0 °F 96% 30.12 in 3.0 mi Calm Calm - N/A   Overcast
7:10 AM 62.6 °F - 60.8 °F 94% 30.17 in 2.0 mi ENE 4.6 mph - N/A   Overcast
7:18 AM 62.6 °F - 62.6 °F 100% 30.18 in 1.5 mi East 3.5 mph - N/A   Overcast
7:32 AM 62.6 °F - 62.6 °F 100% 30.18 in 2.0 mi Calm Calm - N/A   Overcast
7:52 AM 64.9 °F - 63.0 °F 93% 30.13 in 2.5 mi ENE 6.9 mph - N/A   Overcast
8:05 AM 64.4 °F - 62.6 °F 94% 30.19 in 1.2 mi NE 8.1 mph - N/A   Overcast
8:21 AM 64.4 °F - 62.6 °F 94% 30.19 in 2.0 mi NNE 8.1 mph - N/A   Overcast
8:33 AM 66.2 °F - 62.6 °F 88% 30.19 in 4.0 mi North 8.1 mph - N/A   Overcast
8:52 AM 66.0 °F - 62.1 °F 87% 30.13 in 5.0 mi North 10.4 mph - N/A   Mostly Cloudy
9:14 AM 68.0 °F - 62.6 °F 83% 30.20 in 6.0 mi NE 10.4 mph - N/A   Haze
9:38 AM 71.6 °F - 60.8 °F 69% 30.19 in 8.0 mi NE 11.5 mph - N/A   Scattered Clouds
9:52 AM 73.0 °F - 61.0 °F 66% 30.13 in 9.0 mi NE 11.5 mph - N/A   Partly Cloudy
10:52 AM 77.0 °F - 57.9 °F 52% 30.10 in 10.0 mi ENE 13.8 mph 18.4 mph N/A   Clear
11:52 AM 81.0 °F 80.4 °F 53.1 °F 38% 30.09 in 10.0 mi East 16.1 mph 23.0 mph N/A   Mostly Cloudy
12:52 PM 80.1 °F - 50.0 °F 35% 30.10 in 10.0 mi East 15.0 mph 24.2 mph N/A   Mostly Cloudy
1:52 PM 81.0 °F - 46.0 °F 29% 30.10 in 10.0 mi ESE 18.4 mph 25.3 mph N/A   Mostly Cloudy
2:52 PM 82.9 °F - 48.9 °F 31% 30.08 in 10.0 mi East 16.1 mph 26.5 mph N/A   Partly Cloudy
3:52 PM 80.1 °F - 48.9 °F 34% 30.07 in 10.0 mi East 17.3 mph 28.8 mph N/A   Scattered Clouds
4:52 PM 77.0 °F - 52.0 °F 42% 30.06 in 10.0 mi ENE 13.8 mph 23.0 mph N/A   Overcast
5:52 PM 77.0 °F - 54.0 °F 45% 30.04 in 10.0 mi East 13.8 mph - N/A   Overcast
6:52 PM 73.9 °F - 57.0 °F 55% 30.04 in 8.0 mi East 13.8 mph - N/A   Overcast
7:52 PM 66.9 °F - 62.1 °F 84% 30.06 in 10.0 mi East 11.5 mph 20.7 mph 0.00 in   Overcast
8:06 PM 68.0 °F - 62.6 °F 83% 30.12 in 10.0 mi East 13.8 mph - N/A   Mostly Cloudy
8:25 PM 68.0 °F - 62.6 °F 83% 30.12 in 9.0 mi East 9.2 mph - N/A   Mostly Cloudy
8:52 PM 68.0 °F - 61.0 °F 78% 30.06 in 10.0 mi East 13.8 mph - N/A   Overcast
9:35 PM 68.0 °F - 62.6 °F 83% 30.12 in 10.0 mi East 10.4 mph - N/A   Overcast
9:52 PM 68.0 °F - 61.0 °F 78% 30.06 in 10.0 mi ESE 16.1 mph - N/A   Mostly Cloudy
10:02 PM 68.0 °F - 60.8 °F 78% 30.14 in 10.0 mi ESE 19.6 mph 26.5 mph N/A   Mostly Cloudy
10:43 PM 66.2 °F - 60.8 °F 83% 30.15 in 10.0 mi SE 18.4 mph 23.0 mph N/A   Overcast
10:52 PM 66.0 °F - 61.0 °F 84% 30.08 in 10.0 mi SE 15.0 mph - N/A   Overcast
11:52 PM 64.9 °F - 61.0 °F 87% 30.10 in 9.0 mi SSE 17.3 mph - N/A   Overcast